Location: Arboyeti
(42.1122°N, 44.6017°E)
Time: 04:54:22
(UTC+00:00)

Cosmos 1633 - Pass Details

Date: 19 April 2021
Orbit: 461 x 478 km, 82.5° (Epoch: 09 May)

Event Time Altitude Azimuth Distance (km) Brightness Sun altitude
Rises 17:22:06 0° 2° (N) 2,534 6.7 -16.7°
Reaches altitude 10° 17:24:24 10° 14° (NNE) 1,648 5.5 -17.1°
Enters shadow 17:27:22 29° 69° (ENE) 896 3.6 -17.5°
